logo
App data

Alpha Runner

Alpha Runner is a challenging endless platform game, Make your way through different obstacles and mini games that get more difficult the further you get. Show off to your friends by getting the highest score on the leaderboard. Or even play with them and see who can survive the longest.
Store | Hub | SteamDB | Site
Developer: LightsoutGames Publisher: Lightsoutgames
Genre: Adventure, Casual, Indie
Languages: English
Tags: Indie (41), Casual (33), Adventure (31), Platformer (23), Runner (5)
Category: Single-player, Steam Achievements, Steam Trading Cards, Partial Controller Support, Stats, Steam Leaderboards
Release date: Sep 2, 2015 (previously in Early Access)
Price: $0.99
Old userscore: 78% Owners: 100,000 .. 200,000
Followers: 352
Playtime total: 02:16 (average) 02:33 (median)

Steam Spy is still in beta, so expect major bugs.

Owners data:

Access restricted.

This feature is only available to users with special access rights. Sorry.

If you want to proceed, you need to register or log in first and then back Steam Spy on Patreon. Look for Indie or Pro pledge.

Don't forget to use the same email as on Steam Spy!

If you've recently backed Steam Spy on Patreon, please note, that it might take around 15 minutes for your access rights to sync. In most cases you'll need to re-login on Steam Spy too.

Audience in 2 weeks:

Access restricted.

This feature is only available to users with special access rights. Sorry.

If you want to proceed, you need to register or log in first and then back Steam Spy on Patreon. Look for Indie or Pro pledge.

Don't forget to use the same email as on Steam Spy!

If you've recently backed Steam Spy on Patreon, please note, that it might take around 15 minutes for your access rights to sync. In most cases you'll need to re-login on Steam Spy too.

Peak daily concurrent players:

CCU data courtesy of SteamDB. Used with permission.

Hourly concurrent players:

Followers over time

Access restricted.

This feature is only available to users with special access rights. Sorry.

If you want to proceed, you need to register or log in first and then back Steam Spy on Patreon. Look for Indie or Pro pledge.

Don't forget to use the same email as on Steam Spy!

If you've recently backed Steam Spy on Patreon, please note, that it might take around 15 minutes for your access rights to sync. In most cases you'll need to re-login on Steam Spy too.

Views for top 50 videos on YouTube for this game:

Games similar to this one:

# Game Release date
Price
Score rank
(Userscore / Metascore)
Owners
Players
Playtime (Median)
1 BAD END Nov 25, 2015 $2.99N/A (N/A)20,000 .. 50,0000%00:00 (00:00)
2 Reptilian Rebellion Aug 8, 2016 $2.99N/A (N/A)0 .. 20,0000%00:00 (00:00)
3 Love in the Glen Jun 9, 2016 $2.99N/A (N/A)20,000 .. 50,0000%00:00 (00:00)
4 Forgotten, Not Lost - A Kinetic Novel Apr 1, 2016 $1.99N/A (N/A)50,000 .. 100,0000%00:00 (00:00)
5 [the Sequence] Mar 30, 2016 $4.99N/A (N/A)20,000 .. 50,0000%00:00 (00:00)
6 Hustle Cat Mar 16, 2016 $19.99N/A (N/A)50,000 .. 100,0000%00:00 (00:00)
7 Night Blights Apr 15, 2016 $6.99N/A (N/A)0 .. 20,0000%00:00 (00:00)
8 Sophie's Curse Mar 16, 2016 $0.99N/A (N/A)50,000 .. 100,0000%00:00 (00:00)
9 Broken Dreams Feb 19, 2016 $1.99N/A (N/A)500,000 .. 1,000,0000%00:00 (00:00)
10 Air Missions: HIND Mar 21, 2016 $16.99N/A (N/A)20,000 .. 50,0000%00:00 (00:00)
11 SquareCells Dec 7, 2015 $2.99N/A (N/A)50,000 .. 100,0000%00:00 (00:00)
12 Rescue Team 5 Sep 30, 2015 $0.79N/A (N/A)0 .. 20,0000%00:00 (00:00)
13 Hyposphere May 5, 2016 $2.99N/A (N/A)100,000 .. 200,0000%00:00 (00:00)
14 Loot Hound Nov 17, 2015 $7.99N/A (N/A)0 .. 20,0000%00:00 (00:00)
15 The Last NightMary - A Lenda do Cabeça de Cuia Nov 2, 2015 $3.99N/A (N/A)50,000 .. 100,0000%00:00 (00:00)
16 Star Sky Oct 23, 2015 $3.99N/A (N/A)20,000 .. 50,0000%00:00 (00:00)
17 Lift It Jan 20, 2017 $4.99N/A (N/A)100,000 .. 200,0000%00:00 (00:00)
18 Gridworld Dec 24, 2015 $0.99N/A (N/A)0 .. 20,0000%00:00 (00:00)
19 12 Labours of Hercules IV: Mother Nature (Platinum Edition) Dec 25, 2015 $2.99N/A (N/A)20,000 .. 50,0000%00:00 (00:00)
20 Tennis in the Face Nov 18, 2015 $4.99N/A (N/A)0 .. 20,0000%00:00 (00:00)
21 Labyrinth Simulator Sep 21, 2015 $4.99N/A (N/A)0 .. 20,0000%00:00 (00:00)
22 The Deletion Jul 30, 2015 $1.99N/A (N/A)20,000 .. 50,0000%00:00 (00:00)
23 Robot vs Birds Zombies Jun 1, 2013 $0.99N/A (N/A)500,000 .. 1,000,0000%00:00 (00:00)
24 In Between Aug 21, 2015 $11.99N/A (N/A/68%)50,000 .. 100,0000%00:00 (00:00)
25 Archimedes Oct 6, 2016 $1.99N/A (N/A)20,000 .. 50,0000%00:00 (00:00)
26 Think To Die 3 Mar 27, 2017 $4.99N/A (N/A)0 .. 20,0000%00:00 (00:00)
27 Darkarta: A Broken Heart's Quest Collector's Edition Mar 8, 2017 $9.99N/A (N/A)50,000 .. 100,0000%00:00 (00:00)
28 Dungeon Painter Studio Feb 26, 2017 $14.99N/A (N/A)100,000 .. 200,0000%00:00 (00:00)
29 Ninja Stealth 2 Jan 30, 2017 $4.99N/A (N/A)100,000 .. 200,0000%00:00 (00:00)
30 Griptape Backbone May 5, 2017 FreeN/A (N/A)0 .. 20,0000%00:00 (00:00)
31 Winexy Jan 13, 2017 $4.99N/A (N/A)50,000 .. 100,0000%00:00 (00:00)
32 iREC Jan 16, 2017 $4.99N/A (N/A)200,000 .. 500,0000%00:00 (00:00)
33 Neon Prism Nov 18, 2016 $10.99N/A (N/A)200,000 .. 500,0000%00:00 (00:00)
34 The Survey Oct 27, 2016 $4.99N/A (N/A)50,000 .. 100,0000%00:00 (00:00)
35 GO AWAY, THERE'S KUMIS OVER THERE! Oct 28, 2016 $0.99N/A (N/A)50,000 .. 100,0000%00:00 (00:00)
36 Kombine Oct 14, 2016 $0.99N/A (N/A)20,000 .. 50,0000%00:00 (00:00)
37 Wanda - A Beautiful Apocalypse Jun 3, 2016 $1.99N/A (N/A)100,000 .. 200,0000%00:00 (00:00)
38 Turbo Pug 3D Sep 20, 2016 $1.99N/A (N/A)500,000 .. 1,000,0000%00:00 (00:00)
39 Carrie's Order Up! Sep 13, 2016 $2.99N/A (N/A)0 .. 20,0000%00:00 (00:00)
40 Football Blitz Jan 4, 2017 N/AN/A (N/A)0 .. 20,0000%00:00 (00:00)
41 Won't You Be My Laser? Sep 2, 2016 $0.99N/A (N/A)20,000 .. 50,0000%00:00 (00:00)
42 ConflictCraft Dec 8, 2016 $0.27N/A (N/A)100,000 .. 200,0000%00:00 (00:00)
43 Beeftacular Aug 26, 2016 $2.99N/A (N/A)20,000 .. 50,0000%00:00 (00:00)
44 12 Labours of Hercules V: Kids of Hellas (Platinum Edition) Jun 17, 2016 $2.99N/A (N/A)20,000 .. 50,0000%00:00 (00:00)
45 Magma Tsunami Jun 1, 2016 $0.99N/A (N/A)200,000 .. 500,0000%00:00 (00:00)
46 Autumn Sep 23, 2014 $0.99N/A (N/A)50,000 .. 100,0000%00:00 (00:00)
47 hackmud Sep 22, 2016 $19.99N/A (N/A)20,000 .. 50,0000%00:00 (00:00)
48 King's Guard TD Jun 8, 2016 $2.99N/A (N/A)100,000 .. 200,0000%00:00 (00:00)
49 Tribloos 2 Jan 30, 2014 $4.99N/A (N/A)100,000 .. 200,0000%00:00 (00:00)
50 The Jackbox Party Pack Nov 26, 2014 $24.99N/A (N/A)200,000 .. 500,0001.69%00:29 (00:09)
51 Sinister City Oct 20, 2014 $0.99N/A (N/A)100,000 .. 200,0000%00:00 (00:00)
52 Quantum Rush Champions Dec 4, 2014 $9.99N/A (N/A)20,000 .. 50,0000%00:00 (00:00)
53 A Good Snowman Is Hard To Build Feb 25, 2015 $9.99N/A (N/A)50,000 .. 100,0000%00:00 (00:00)
54 Bloop Reloaded Feb 6, 2015 N/AN/A (N/A)100,000 .. 200,0000%00:00 (00:00)
55 GamersGoMakers Aug 8, 2014 $8.99N/A (N/A)20,000 .. 50,0000%00:00 (00:00)
56 Wildlife Park 2 - Dino World Jul 17, 2014 $3.99N/A (N/A)20,000 .. 50,0000%00:00 (00:00)
57 Cyto Jul 10, 2014 $3.99N/A (N/A)20,000 .. 50,0000%00:00 (00:00)
58 European Ship Simulator Nov 4, 2016 $19.99N/A (N/A)100,000 .. 200,0000%00:00 (00:00)
59 Rage Runner May 16, 2014 $4.99N/A (N/A)0 .. 20,0000%00:00 (00:00)
60 On Rusty Trails Jun 13, 2016 $12.99N/A (N/A/77%)20,000 .. 50,0000%00:00 (00:00)
61 1931: Scheherazade at the Library of Pergamum Mar 26, 2015 $4.99N/A (N/A)50,000 .. 100,0000%00:00 (00:00)
62 Paranormal State: Poison Spring Nov 26, 2013 N/AN/A (N/A)50,000 .. 100,0000%00:00 (00:00)
63 Grapple Mar 9, 2015 $6.99N/A (N/A)50,000 .. 100,0000%00:00 (00:00)
64 Farm for your Life Jun 16, 2014 $9.99N/A (N/A)100,000 .. 200,0000%00:00 (00:00)
65 Girls Like Robots Feb 14, 2014 $6.99N/A (N/A)100,000 .. 200,0000%00:00 (00:00)
66 Dead Man's Draw Feb 6, 2014 $1.74N/A (N/A)100,000 .. 200,0000%00:00 (00:00)
67 Particulars Nov 19, 2014 FreeN/A (N/A/74%)0 .. 20,0000%00:00 (00:00)
68 Oozi: Earth Adventure Dec 5, 2013 $9.99N/A (N/A/66%)20,000 .. 50,0000%00:00 (00:00)
69 Highborn Feb 19, 2013 $1.99N/A (N/A)0 .. 20,0000%00:00 (00:00)
70 Luxor Evolved Mar 1, 2012 $9.99N/A (N/A)50,000 .. 100,0000%00:00 (00:00)
71 Governor of Poker 2 - Premium Edition Oct 11, 2010 $14.99N/A (N/A)20,000 .. 50,0000%00:00 (00:00)
72 Axel & Pixel Oct 6, 2010 $4.99N/A (N/A)20,000 .. 50,0000%00:00 (00:00)
73 Alter World May 29, 2015 $7.99N/A (N/A)200,000 .. 500,0000%00:00 (00:00)
74 Job the Leprechaun Jul 31, 2015 $2.99N/A (N/A)50,000 .. 100,0000%00:00 (00:00)
75 Star Chronicles: Delta Quadrant Jul 7, 2015 $1.99N/A (N/A)200,000 .. 500,0000%00:00 (00:00)
76 Koala Kids Jun 22, 2015 $1.99N/A (N/A)100,000 .. 200,0000%00:00 (00:00)
77 Fate Tectonics Sep 9, 2015 $4.99N/A (N/A)20,000 .. 50,0000%00:00 (00:00)
78 Way of Gold and Steel Aug 17, 2015 $8.99N/A (N/A)20,000 .. 50,0000%00:00 (00:00)
79 Power of Love Jul 21, 2015 $0.9N/A (N/A)20,000 .. 50,0000%00:00 (00:00)
80 Beat Da Beat Mar 10, 2016 $1.99N/A (N/A)20,000 .. 50,0000%00:00 (00:00)
81 Egg Returns Home May 5, 2015 N/AN/A (N/A)100,000 .. 200,0000%00:00 (00:00)
82 MOAI 2: Path to Another World Jul 16, 2015 $7.99N/A (N/A)0 .. 20,0000%00:00 (00:00)
83 The Reject Demon: Toko Chapter 0 — Prelude May 8, 2015 $4.99N/A (N/A)20,000 .. 50,0000%00:00 (00:00)
84 Earthtongue Apr 27, 2015 $4.99N/A (N/A)100,000 .. 200,0000%00:00 (00:00)
85 Thrillville: Off the Rails Jul 8, 2009 $9.99N/A (N/A/70%)20,000 .. 50,0000%00:00 (00:00)
86 Drizzlepath Mar 12, 2015 $1.19N/A (N/A)20,000 .. 50,0000%00:00 (00:00)
87 Pester Aug 21, 2015 $0.99N/A (N/A)100,000 .. 200,0000%00:00 (00:00)
88 Racecraft Mar 4, 2016 N/AN/A (N/A)20,000 .. 50,0000%00:00 (00:00)
89 Streets of Chaos Jan 23, 2015 N/AN/A (N/A)50,000 .. 100,0000%00:00 (00:00)
90 Astro Emporia Feb 2, 2015 $0.51N/A (N/A)50,000 .. 100,0000%00:00 (00:00)
91 Stay Alight Mar 2, 2015 $3.99N/A (N/A)50,000 .. 100,0000%00:00 (00:00)
92 Pixel Puzzles 2: Birds Feb 20, 2015 $4.99N/A (N/A)200,000 .. 500,0000%00:00 (00:00)
93 Bob Was Hungry Aug 19, 2015 $9.99N/A (N/A)50,000 .. 100,0000%00:00 (00:00)
94 12 Labours of Hercules Mar 23, 2015 $1.49N/A (N/A)100,000 .. 200,0000%00:00 (00:00)
95 Marble Duel: Sphere-Matching Tactical Fantasy Nov 12, 2015 $14.99N/A (N/A)50,000 .. 100,0000%00:00 (00:00)
96 Steam and Metal Feb 9, 2015 $4.99N/A (N/A)20,000 .. 50,0000%00:00 (00:00)

Tags over time:

Access restricted.

This feature is only available to users with special access rights. Sorry.

If you want to proceed, you need to register or log in first and then back Steam Spy on Patreon. Look for Indie or Pro pledge.

Don't forget to use the same email as on Steam Spy!

If you've recently backed Steam Spy on Patreon, please note, that it might take around 15 minutes for your access rights to sync. In most cases you'll need to re-login on Steam Spy too.

Owners of this game also own:

Access restricted.

This feature is only available to users with special access rights. Sorry.

If you want to proceed, you need to register or log in first and then back Steam Spy on Patreon. Look for Indie or Pro pledge.

Don't forget to use the same email as on Steam Spy!

If you've recently backed Steam Spy on Patreon, please note, that it might take around 15 minutes for your access rights to sync. In most cases you'll need to re-login on Steam Spy too.

Playtime distribution:

Access restricted.

This feature is only available to users with special access rights. Sorry.

If you want to proceed, you need to register or log in first and then back Steam Spy on Patreon. Look for Indie or Pro pledge.

Don't forget to use the same email as on Steam Spy!

If you've recently backed Steam Spy on Patreon, please note, that it might take around 15 minutes for your access rights to sync. In most cases you'll need to re-login on Steam Spy too.

Playtime (2 weeks):

Access restricted.

This feature is only available to users with special access rights. Sorry.

If you want to proceed, you need to register or log in first and then back Steam Spy on Patreon. Look for Indie or Pro pledge.

Don't forget to use the same email as on Steam Spy!

If you've recently backed Steam Spy on Patreon, please note, that it might take around 15 minutes for your access rights to sync. In most cases you'll need to re-login on Steam Spy too.

User reviews:

Login required.

Please register or log in to see this information.